VK4TW-13 Weather Reports


Display with metric or nautical units.
time (UTC)temp
F
wind
direction
speed
MPH
gust
MPH
rain 1hr
in
rain 24hr
in
rain mn
in
humidity
%
barometer
mb
20260508215852 63 79 0.0 0.0 0.00 0.00 0.00 97 1020.2
20260508214852 62 111 0.0 0.0 0.00 0.00 0.00 98 1020.2
20260508213852 61 71 0.0 0.0 0.00 0.00 0.00 98 1020.2
20260508212850 60 80 0.0 0.0 0.00 0.00 0.00 99 1020.0
20260508211847 59 67 0.0 0.0 0.00 0.00 0.00 99 1020.0
20260508210847 58 71 0.0 0.0 0.00 0.00 0.00 99 1020.0
20260508205848 58 104 0.0 0.0 0.00 0.00 0.00 98 1019.9
20260508204845 58 87 0.0 0.0 0.00 0.00 0.00 98 1019.6
20260508203844 58 71 0.0 0.0 0.00 0.00 0.00 97 1019.5
20260508202847 58 75 0.0 0.0 0.00 0.00 0.00 95 1019.3
20260508201841 58 67 0.0 0.0 0.00 0.00 0.00 94 1019.0
20260508200842 58 68 0.0 0.0 0.00 0.00 0.00 94 1018.9
20260508195844 59 67 0.0 0.0 0.00 0.00 0.00 93 1018.6
20260508194840 59 67 0.0 0.0 0.00 0.00 0.00 91 1018.6
20260508193839 59 67 0.0 0.0 0.00 0.00 0.00 91 1018.5
20260508192837 59 99 0.0 0.0 0.00 0.00 0.00 90 1018.2
20260508191839 60 112 0.0 0.0 0.00 0.00 0.00 89 1018.1
20260508190838 60 104 0.0 0.0 0.00 0.00 0.00 89 1017.9
20260508184836 60 83 0.0 0.0 0.00 0.00 0.00 87 1018.1
20260508183835 60 97 0.0 0.0 0.00 0.00 0.00 86 1017.9
20260508181833 60 89 0.0 0.0 0.00 0.00 0.00 85 1017.8
20260508180831 60 82 0.0 0.0 0.00 0.00 0.00 84 1017.8
20260508175832 60 67 0.0 0.0 0.00 0.00 0.00 83 1018.0
20260508174829 60 67 0.0 0.0 0.00 0.00 0.00 83 1017.9
20260508173827 60 82 0.0 0.0 0.00 0.00 0.00 83 1018.0
20260508172828 60 67 0.0 0.0 0.00 0.00 0.00 82 1018.0
20260508171826 60 67 0.0 0.0 0.00 0.00 0.00 81 1017.9
20260508170825 60 82 0.0 0.0 0.00 0.00 0.00 80 1017.9
20260508165824 61 67 0.0 0.0 0.00 0.00 0.00 79 1017.9
20260508164822 61 67 0.0 0.0 0.00 0.00 0.00 79 1018.0
20260508162824 61 75 0.0 0.0 0.00 0.00 0.00 78 1018.0
20260508161823 61 67 0.0 0.0 0.00 0.00 0.00 77 1018.1
20260508160821 61 79 0.0 0.0 0.00 0.00 0.00 77 1018.1
20260508155820 61 67 0.0 0.0 0.00 0.00 0.00 77 1018.3
20260508154818 61 72 0.0 0.0 0.00 0.00 0.00 78 1018.4
20260508153817 60 74 0.0 0.0 0.00 0.00 0.00 78 1018.3
20260508152818 60 67 0.0 0.0 0.00 0.00 0.00 78 1018.4
20260508151814 60 77 0.0 0.0 0.00 0.00 0.00 78 1018.3
20260508150813 60 94 0.0 0.0 0.00 0.00 0.00 79 1018.3
20260508145814 59 93 0.0 0.0 0.00 0.00 0.00 78 1018.6
20260508144814 59 100 0.0 0.0 0.00 0.00 0.00 78 1018.5
20260508143813 59 112 0.0 0.0 0.00 0.00 0.00 78 1018.6
20260508142813 59 82 0.0 0.0 0.00 0.00 0.00 78 1018.7
20260508141809 59 112 0.0 0.0 0.00 0.00 0.00 77 1018.7
20260508140809 60 67 0.0 0.0 0.00 0.00 0.00 77 1018.8
20260508134806 60 67 0.0 0.0 0.00 0.00 0.00 76 1018.9
20260508132805 60 77 0.0 0.0 0.00 0.00 0.00 76 1019.0
20260508131805 60 67 0.0 0.0 0.00 0.00 0.00 75 1019.1
20260508130803 60 67 0.0 0.0 0.00 0.00 0.00 75 1019.0
20260508125803 60 112 0.0 0.0 0.00 0.00 0.00 76 1019.0
20260508124800 60 112 0.0 0.0 0.00 0.00 0.00 77 1019.2
20260508123759 60 67 0.0 0.0 0.00 0.00 0.00 78 1019.2
20260508122805 60 112 0.0 0.0 0.00 0.00 0.00 79 1019.1
20260508121800 60 95 0.0 0.0 0.00 0.00 0.00 80 1019.2
20260508120759 60 112 0.0 0.0 0.00 0.00 0.00 81 1019.3
20260508115758 60 96 0.0 0.0 0.00 0.00 0.00 82 1019.3
20260508114756 60 102 0.0 0.0 0.00 0.00 0.00 83 1019.3
20260508113756 60 112 0.0 0.0 0.00 0.00 0.00 85 1019.4
20260508112754 60 68 0.0 0.0 0.00 0.00 0.00 85 1019.4
20260508111753 60 112 0.0 0.0 0.00 0.00 0.00 86 1019.4
20260508110752 60 112 0.0 0.0 0.00 0.00 0.00 85 1019.4
20260508105751 60 67 0.0 0.0 0.00 0.00 0.00 86 1019.3
20260508104750 60 67 0.0 0.0 0.00 0.00 0.00 89 1019.3
20260508103749 61 67 0.0 0.0 0.00 0.00 0.00 91 1019.2
20260508102751 61 67 0.0 0.0 0.00 0.00 0.00 94 1018.9
20260508101747 62 112 0.0 0.0 0.00 0.00 0.00 94 1018.8
20260508100746 62 67 0.0 0.0 0.00 0.00 0.00 92 1018.6
20260508095749 62 112 0.0 0.0 0.00 0.00 0.00 100 1018.6
20260508094746 62 112 0.0 0.0 0.00 0.00 0.00 92 1018.6
20260508093747 62 112 0.0 0.0 0.00 0.00 0.00 96 1018.5
20260508092744 63 67 0.0 0.0 0.00 0.00 0.00 95 1018.4
20260508091743 63 67 0.0 0.0 0.00 0.00 0.00 99 1018.4
20260508090741 64 67 0.0 0.0 0.00 0.00 0.00 99 1018.1
20260508085741 65 112 0.0 0.0 0.00 0.00 0.00 96 1018.0
20260508084739 65 67 0.0 0.0 0.00 0.00 0.00 95 1017.9
20260508083738 66 67 0.0 0.0 0.00 0.00 0.00 94 1017.7
20260508082740 67 67 0.0 0.0 0.00 0.00 0.00 90 1017.5
20260508081736 68 67 0.0 0.0 0.00 0.00 0.00 90 1017.5
20260508080735 68 67 0.0 0.0 0.00 0.00 0.00 88 1017.3
20260508075737 69 112 0.0 0.0 0.00 0.00 0.00 86 1017.2
20260508074733 69 112 0.0 0.0 0.00 0.00 0.00 84 1017.0
20260508073733 69 112 0.0 0.0 0.00 0.00 0.00 81 1016.9
20260508072733 70 112 0.0 0.0 0.00 0.00 0.00 78 1016.9
20260508071730 70 100 0.0 0.0 0.00 0.00 0.00 71 1016.6
20260508070730 71 112 0.0 0.0 0.00 0.00 0.00 66 1016.5
20260508065730 72 112 0.0 0.0 0.00 0.00 0.00 62 1016.3
20260508064729 73 112 0.0 0.0 0.00 0.00 0.00 58 1016.3
20260508063727 73 112 0.0 0.0 0.00 0.00 0.00 53 1016.1
20260508062727 74 112 0.0 0.0 0.00 0.00 0.00 49 1016.0
20260508061726 75 112 0.0 0.0 0.00 0.00 0.00 44 1016.0
20260508060724 75 82 0.0 0.0 0.00 0.00 0.00 37 1015.9
20260508055727 75 106 0.0 0.0 0.00 0.00 0.00 38 1015.9
20260508054722 76 67 0.0 0.0 0.00 0.00 0.00 38 1015.8
20260508053720 76 86 0.0 0.0 0.00 0.00 0.00 37 1015.7
20260508052723 76 99 0.0 0.0 0.00 0.00 0.00 40 1015.7
20260508051718 76 112 0.0 0.0 0.00 0.00 0.00 40 1015.6
20260508050720 77 73 0.0 0.0 0.00 0.00 0.00 36 1015.5
20260508045719 77 75 0.0 0.0 0.00 0.00 0.00 39 1015.6
20260508044717 77 112 0.0 0.0 0.00 0.00 0.00 40 1015.7
20260508043715 77 112 0.0 0.0 0.00 0.00 0.00 39 1015.7
20260508042714 78 86 0.0 0.0 0.00 0.00 0.00 37 1015.7
20260508041713 78 112 0.0 0.0 0.00 0.00 0.00 38 1015.9
20260508040712 78 89 0.0 0.0 0.00 0.00 0.00 38 1015.9
20260508035711 78 98 0.0 0.0 0.00 0.00 0.00 37 1016.0
20260508034713 78 101 0.0 0.0 0.00 0.00 0.00 36 1016.1
20260508033711 78 112 0.0 0.0 0.00 0.00 0.00 38 1016.2
20260508032711 78 102 0.0 0.0 0.00 0.00 0.00 40 1016.2
20260508031708 77 87 0.0 0.0 0.00 0.00 0.00 38 1016.4
20260508030708 76 105 0.0 0.0 0.00 0.00 0.00 38 1016.6
20260508025708 76 67 0.0 0.0 0.00 0.00 0.00 37 1016.8
20260508024706 76 72 0.0 0.0 0.00 0.00 0.00 39 1017.2
20260508023705 76 67 0.0 0.0 0.00 0.00 0.00 43 1017.3
20260508022707 76 108 0.0 0.0 0.00 0.00 0.00 40 1017.6
20260508021704 76 103 0.0 0.0 0.00 0.00 0.00 47 1017.7
20260508020702 75 72 0.0 0.0 0.00 0.00 0.00 44 1017.7
20260508015702 74 94 0.0 0.0 0.00 0.00 0.00 46 1018.0
20260508014701 74 72 0.0 0.0 0.00 0.00 0.00 46 1018.0
20260508013701 73 94 0.0 0.0 0.00 0.00 0.00 50 1018.2
20260508012702 72 71 0.0 0.0 0.00 0.00 0.00 49 1018.4
20260508011657 72 71 0.0 0.0 0.00 0.00 0.00 47 1018.6
20260508010658 72 75 0.0 0.0 0.00 0.00 0.00 51 1018.9
20260508005657 71 82 0.0 0.0 0.00 0.00 0.00 54 1018.8
20260508004655 70 98 0.0 0.0 0.00 0.00 0.00 55 1019.0
20260508003655 70 79 0.0 0.0 0.00 0.00 0.00 54 1019.4
20260508002656 69 79 0.0 0.0 0.00 0.00 0.00 56 1019.5
20260508001653 69 98 0.0 0.0 0.00 0.00 0.00 57 1019.5
20260508000651 69 72 0.0 0.0 0.00 0.00 0.00 64 1019.6
20260507235653 68 82 0.0 0.0 0.00 0.00 0.00 67 1019.8
20260507234650 68 79 0.0 0.0 0.00 0.00 0.00 70 1019.8
20260507233647 68 79 0.0 0.0 0.00 0.00 0.00 74 1019.7
20260507232650 66 77 0.0 0.0 0.00 0.00 0.00 80 1019.8
20260507231648 65 67 0.0 0.0 0.00 0.00 0.00 81 1019.8
20260507230647 65 81 0.0 0.0 0.00 0.00 0.00 80 1020.0
20260507225646 64 83 0.0 0.0 0.00 0.00 0.00 84 1019.9
20260507224643 63 81 0.0 0.0 0.00 0.00 0.00 84 1020.0
20260507223644 63 90 0.0 0.0 0.00 0.00 0.00 89 1019.9
20260507222645 63 112 0.0 0.0 0.00 0.00 0.00 90 1020.0
20260507221641 62 72 0.0 0.0 0.00 0.00 0.00 90 1020.0
20260507220642 62 85 0.0 0.0 0.00 0.00 0.00 91 1019.8